Data No,UTC Date,UTC Time,Latitude,Longitude,Course(deg),Temp(degC),Sal(psu),Fluor Int,Blank
5621,2003/12/28,6:48:09, 20-07.944N,119-59.984E,240.5,24.68,34.0132,418,166
5622,2003/12/28,6:49:09, 20-07.808N,119-59.818E,227.4,24.702,33.9863,346,166
5623,2003/12/28,6:50:08, 20-07.679N,119-59.648E,225.9,24.716,33.9624,241,166
5624,2003/12/28,6:51:08, 20-07.550N,119-59.475E,227.7,24.728,33.9505,264,166
5625,2003/12/28,6:52:09, 20-07.417N,119-59.304E,231.9,24.736,33.9456,367,166
5626,2003/12/28,6:53:08, 20-07.285N,119-59.134E,227.6,24.728,33.9407,348,166
5627,2003/12/28,6:54:08, 20-07.151N,119-58.966E,227.8,24.701,33.9423,280,166
5628,2003/12/28,6:55:09, 20-07.020N,119-58.792E,228.9,24.717,33.9617,311,166
5629,2003/12/28,6:56:09, 20-06.886N,119-58.621E,229.2,24.743,33.9761,352,166
5630,2003/12/28,6:57:09, 20-06.749N,119-58.444E,226.5,24.77,33.9752,263,166
5631,2003/12/28,6:58:09, 20-06.612N,119-58.276E,229,24.787,33.9719,375,166
5632,2003/12/28,6:59:09, 20-06.477N,119-58.101E,224.5,24.791,33.9668,252,166
5633,2003/12/28,7:00:08, 20-06.339N,119-57.933E,238.1,24.797,33.9603,317,166
5634,2003/12/28,7:01:08, 20-06.207N,119-57.759E,228,24.803,33.9611,313,166
5635,2003/12/28,7:02:09, 20-06.066N,119-57.593E,231.1,24.813,33.9552,285,166
5637,2003/12/28,7:04:08, 20-05.792N,119-57.258E,231.5,24.835,33.9355,294,166
5638,2003/12/28,7:05:09, 20-05.656N,119-57.089E,224.5,24.851,33.9253,285,166
5639,2003/12/28,7:06:08, 20-05.521N,119-56.921E,229.3,24.864,33.9077,318,166
5642,2003/12/28,7:09:09, 20-05.120N,119-56.415E,235.4,24.867,33.8746,288,166
5643,2003/12/28,7:10:08, 20-04.982N,119-56.246E,238.8,24.864,33.8681,291,166
5644,2003/12/28,7:11:08, 20-04.847N,119-56.074E,231.2,24.853,33.8642,305,166
5645,2003/12/28,7:12:09, 20-04.712N,119-55.899E,229.2,24.842,33.8659,293,166
5646,2003/12/28,7:13:09, 20-04.580N,119-55.721E,239,24.833,33.8698,306,166
5647,2003/12/28,7:14:08, 20-04.446N,119-55.549E,231.5,24.827,33.8741,295,166
5648,2003/12/28,7:15:08, 20-04.316N,119-55.370E,233.4,24.817,33.877,306,166
5649,2003/12/28,7:16:09, 20-04.177N,119-55.201E,237.8,24.815,33.8777,306,166
5650,2003/12/28,7:17:09, 20-04.047N,119-55.027E,234.9,24.812,33.8783,380,166
5651,2003/12/28,7:18:09, 20-03.913N,119-54.854E,224.4,24.799,33.8784,297,166
5652,2003/12/28,7:19:08, 20-03.779N,119-54.682E,233.1,24.799,33.8837,329,166
5653,2003/12/28,7:20:08, 20-03.650N,119-54.506E,223.9,24.797,33.8911,311,166
5654,2003/12/28,7:21:09, 20-03.516N,119-54.331E,237.6,24.789,33.8928,315,166
5655,2003/12/28,7:22:09, 20-03.383N,119-54.156E,222.7,24.791,33.894,307,166
5656,2003/12/28,7:23:08, 20-03.245N,119-53.985E,233.9,24.784,33.8951,300,166
5657,2003/12/28,7:24:08, 20-03.112N,119-53.807E,236.3,24.773,33.8961,314,166
5658,2003/12/28,7:25:09, 20-02.984N,119-53.631E,228.6,24.774,33.9012,281,166
5659,2003/12/28,7:26:09, 20-02.854N,119-53.452E,235.8,24.778,33.9046,288,166
5660,2003/12/28,7:27:08, 20-02.719N,119-53.280E,224.4,24.782,33.9038,275,166
5661,2003/12/28,7:28:08, 20-02.590N,119-53.102E,232.6,24.783,33.9021,311,166
5662,2003/12/28,7:29:09, 20-02.457N,119-52.928E,228,24.776,33.9025,282,166
5663,2003/12/28,7:30:09, 20-02.328N,119-52.749E,234.6,24.775,33.9039,304,166
5664,2003/12/28,7:31:09, 20-02.193N,119-52.570E,233.4,24.773,33.9077,305,166
5665,2003/12/28,7:32:08, 20-02.063N,119-52.395E,232.4,24.773,33.9082,306,166
5666,2003/12/28,7:33:09, 20-01.932N,119-52.216E,235.9,24.769,33.9112,312,166
5667,2003/12/28,7:34:09, 20-01.797N,119-52.037E,237.8,24.766,33.912,262,166
5668,2003/12/28,7:35:08, 20-01.665N,119-51.855E,236.3,24.758,33.9133,311,166
5669,2003/12/28,7:36:08, 20-01.534N,119-51.673E,232.9,24.758,33.9174,357,166
5670,2003/12/28,7:37:08, 20-01.399N,119-51.495E,236.6,24.755,33.9181,327,166
5671,2003/12/28,7:38:09, 20-01.266N,119-51.316E,227.8,24.741,33.9193,301,166
5672,2003/12/28,7:39:09, 20-01.131N,119-51.136E,228.7,24.726,33.9224,223,166
5673,2003/12/28,7:40:08, 20-01.002N,119-50.957E,226.5,24.706,33.9271,361,166
5674,2003/12/28,7:41:08, 20-00.869N,119-50.784E,232.8,24.7,33.9372,317,166
5675,2003/12/28,7:42:09, 20-00.742N,119-50.608E,226,24.696,33.9441,314,166
5676,2003/12/28,7:43:09, 20-00.614N,119-50.432E,234.9,24.694,33.9476,326,166
5677,2003/12/28,7:44:09, 20-00.482N,119-50.262E,224.3,24.692,33.9475,335,166
5678,2003/12/28,7:45:08, 20-00.349N,119-50.090E,230.4,24.683,33.9445,332,166
5679,2003/12/28,7:46:08, 20-00.219N,119-49.920E,223,24.671,33.9447,332,166
5680,2003/12/28,7:47:09, 20-00.077N,119-49.758E,232.1,24.656,33.9455,306,166
5681,2003/12/28,7:48:09, 19-59.946N,119-49.592E,235.1,24.647,33.9496,370,166
5682,2003/12/28,7:49:09, 19-59.808N,119-49.428E,233.5,24.638,33.9532,389,166
5683,2003/12/28,7:50:09, 19-59.681N,119-49.260E,236.6,24.638,33.9571,253,166
5684,2003/12/28,7:51:09, 19-59.542N,119-49.097E,226.2,24.639,33.9571,308,166
5685,2003/12/28,7:52:09, 19-59.408N,119-48.923E,240.9,24.636,33.9555,352,166
5686,2003/12/28,7:53:08, 19-59.272N,119-48.759E,231.5,24.619,33.9518,319,166
5687,2003/12/28,7:54:08, 19-59.133N,119-48.591E,231.5,24.601,33.9521,365,166
5688,2003/12/28,7:55:09, 19-58.993N,119-48.430E,225.3,24.581,33.9556,358,166
5689,2003/12/28,7:56:09, 19-58.859N,119-48.261E,232.7,24.565,33.9644,387,166
5690,2003/12/28,7:57:09, 19-58.727N,119-48.097E,238.3,24.556,33.9746,439,166
5691,2003/12/28,7:58:09, 19-58.594N,119-47.940E,221.8,24.54,33.9803,367,166
5692,2003/12/28,7:59:09, 19-58.461N,119-47.776E,233.5,24.525,33.9858,293,166
5693,2003/12/28,8:00:09, 19-58.325N,119-47.614E,223.9,24.505,33.9923,327,166
5694,2003/12/28,8:01:09, 19-58.189N,119-47.446E,226.9,24.487,34.0003,263,166
5695,2003/12/28,8:02:08, 19-58.054N,119-47.285E,231.6,24.475,34.0073,349,166
5696,2003/12/28,8:03:09, 19-57.919N,119-47.123E,234.6,24.458,34.0145,359,166
5697,2003/12/28,8:04:09, 19-57.786N,119-46.961E,224,24.433,34.0224,341,166
5698,2003/12/28,8:05:09, 19-57.649N,119-46.790E,227.5,24.424,34.0309,343,166
5699,2003/12/28,8:06:09, 19-57.512N,119-46.626E,229.7,24.42,34.0379,363,166
5700,2003/12/28,8:07:08, 19-57.381N,119-46.464E,221.9,24.421,34.0369,282,166
5701,2003/12/28,8:08:09, 19-57.244N,119-46.298E,237,24.42,34.0356,303,166
5702,2003/12/28,8:09:09, 19-57.107N,119-46.129E,230,24.419,34.0294,364,166
5703,2003/12/28,8:10:08, 19-56.969N,119-45.961E,234.2,24.412,34.0239,238,166
5704,2003/12/28,8:11:08, 19-56.829N,119-45.795E,225.5,24.41,34.0253,379,166
5705,2003/12/28,8:12:09, 19-56.689N,119-45.628E,218.6,24.407,34.0238,356,166
5706,2003/12/28,8:13:09, 19-56.551N,119-45.458E,228.5,24.399,34.022,353,166
5707,2003/12/28,8:14:09, 19-56.412N,119-45.293E,232.4,24.398,34.0246,289,166
5708,2003/12/28,8:15:09, 19-56.277N,119-45.128E,221,24.407,34.0244,376,166
5709,2003/12/28,8:16:09, 19-56.136N,119-44.962E,232.8,24.4,34.0153,379,166
5710,2003/12/28,8:17:09, 19-55.998N,119-44.792E,230.6,24.393,34.0041,320,166
5711,2003/12/28,8:18:09, 19-55.859N,119-44.626E,229.1,24.381,34.0073,355,166
5712,2003/12/28,8:19:09, 19-55.724N,119-44.457E,225.5,24.372,34.0089,373,166
5713,2003/12/28,8:20:09, 19-55.585N,119-44.293E,230.5,24.359,34.0181,371,166
5714,2003/12/28,8:21:09, 19-55.443N,119-44.122E,233.3,24.351,34.0219,385,166
5715,2003/12/28,8:22:09, 19-55.309N,119-43.953E,234.2,24.344,34.0262,374,166
5716,2003/12/28,8:23:09, 19-55.173N,119-43.795E,224.4,24.345,34.0274,350,166
5717,2003/12/28,8:24:09, 19-55.035N,119-43.631E,230.5,24.334,34.0242,373,166
5718,2003/12/28,8:25:09, 19-54.896N,119-43.458E,234.2,24.325,34.026,379,166
5719,2003/12/28,8:26:09, 19-54.757N,119-43.293E,227.3,24.313,34.0313,317,166
5720,2003/12/28,8:27:09, 19-54.617N,119-43.125E,225.1,24.311,34.0384,366,166
5721,2003/12/28,8:28:09, 19-54.475N,119-42.956E,230.4,24.311,34.0452,362,166
5722,2003/12/28,8:29:08, 19-54.339N,119-42.797E,233.2,24.31,34.0446,339,166
5723,2003/12/28,8:30:09, 19-54.204N,119-42.633E,224.8,24.307,34.0453,384,166
5724,2003/12/28,8:31:09, 19-54.063N,119-42.478E,229.9,24.304,34.0437,368,166
5725,2003/12/28,8:32:09, 19-53.926N,119-42.313E,224.3,24.304,34.0455,356,166
5726,2003/12/28,8:33:09, 19-53.788N,119-42.152E,232,24.305,34.0492,248,166
5727,2003/12/28,8:34:09, 19-53.654N,119-41.993E,235.9,24.313,34.0473,364,166
5728,2003/12/28,8:35:09, 19-53.521N,119-41.833E,224.1,24.313,34.0429,370,166
5729,2003/12/28,8:36:09, 19-53.382N,119-41.676E,226.2,24.317,34.0361,359,166
5730,2003/12/28,8:37:09, 19-53.249N,119-41.521E,227.4,24.323,34.0306,303,166
5731,2003/12/28,8:38:09, 19-53.114N,119-41.365E,228.3,24.328,34.0262,331,166
5732,2003/12/28,8:39:09, 19-52.980N,119-41.207E,224.4,24.334,34.0205,391,166
5733,2003/12/28,8:40:09, 19-52.840N,119-41.044E,235.3,24.339,34.0145,391,166
5734,2003/12/28,8:41:09, 19-52.702N,119-40.881E,225.3,24.341,34.0107,501,166
5735,2003/12/28,8:42:09, 19-52.566N,119-40.714E,224.8,24.341,34.0084,365,166
5736,2003/12/28,8:43:09, 19-52.430N,119-40.552E,230.3,24.338,34.0089,389,166
5737,2003/12/28,8:44:09, 19-52.290N,119-40.391E,228.6,24.342,34.0129,311,166
5738,2003/12/28,8:45:09, 19-52.162N,119-40.234E,227.3,24.338,34.0159,484,166
5739,2003/12/28,8:46:09, 19-52.027N,119-40.069E,230.5,24.34,34.0166,480,166
5740,2003/12/28,8:47:09, 19-51.897N,119-39.904E,228.2,24.347,34.0138,394,166
5741,2003/12/28,8:48:09, 19-51.760N,119-39.748E,227.6,24.351,34.0071,437,166
5742,2003/12/28,8:49:09, 19-51.622N,119-39.580E,227.9,24.357,34.0012,395,166
5743,2003/12/28,8:50:09, 19-51.485N,119-39.419E,233.7,24.364,33.9934,274,166
5744,2003/12/28,8:51:09, 19-51.354N,119-39.259E,227.4,24.369,33.9868,410,166
5745,2003/12/28,8:52:09, 19-51.227N,119-39.100E,222.8,24.37,33.9799,317,166
5746,2003/12/28,8:53:09, 19-51.088N,119-38.939E,220.6,24.369,33.9752,353,166
5747,2003/12/28,8:54:09, 19-50.957N,119-38.775E,227.7,24.372,33.9706,418,166
5748,2003/12/28,8:55:09, 19-50.823N,119-38.614E,231.8,24.376,33.9676,409,166
5749,2003/12/28,8:56:09, 19-50.692N,119-38.453E,225.2,24.377,33.9675,394,166
5750,2003/12/28,8:57:09, 19-50.559N,119-38.287E,239.8,24.381,33.9661,376,166
5751,2003/12/28,8:58:09, 19-50.430N,119-38.128E,218.8,24.383,33.9643,436,166
5752,2003/12/28,8:59:09, 19-50.300N,119-37.966E,230.4,24.384,33.9613,369,166
5753,2003/12/28,9:00:09, 19-50.175N,119-37.804E,230.8,24.386,33.9601,344,166
5754,2003/12/28,9:01:09, 19-50.046N,119-37.645E,229.5,24.382,33.9574,413,166
5755,2003/12/28,9:02:09, 19-49.920N,119-37.479E,231.3,24.38,33.955,420,166
5756,2003/12/28,9:03:09, 19-49.790N,119-37.314E,234.5,24.379,33.955,429,166
5757,2003/12/28,9:04:09, 19-49.664N,119-37.152E,219.6,24.38,33.9579,404,166
5758,2003/12/28,9:05:09, 19-49.534N,119-36.990E,236.5,24.377,33.9579,499,166
5759,2003/12/28,9:06:09, 19-49.403N,119-36.825E,227.1,24.367,33.9592,409,166
5760,2003/12/28,9:07:09, 19-49.268N,119-36.663E,229.7,24.356,33.962,493,166
5761,2003/12/28,9:08:09, 19-49.139N,119-36.496E,227.9,24.345,33.9644,329,166
5762,2003/12/28,9:09:09, 19-49.008N,119-36.336E,234.8,24.338,33.9677,404,166
5763,2003/12/28,9:10:09, 19-48.873N,119-36.164E,231.3,24.325,33.9708,427,166
5764,2003/12/28,9:11:09, 19-48.738N,119-36.002E,228.2,24.318,33.9746,477,166
5765,2003/12/28,9:12:09, 19-48.606N,119-35.835E,232.2,24.305,33.9771,376,166
5766,2003/12/28,9:13:09, 19-48.473N,119-35.669E,221.3,24.294,33.9818,448,166
5767,2003/12/28,9:14:09, 19-48.340N,119-35.500E,229.9,24.28,33.9907,406,166
5768,2003/12/28,9:15:09, 19-48.202N,119-35.337E,237.7,24.269,33.9979,461,166
5769,2003/12/28,9:16:09, 19-48.071N,119-35.164E,228.8,24.255,34.0079,408,166
5770,2003/12/28,9:17:09, 19-47.935N,119-35.005E,222.5,24.24,34.0114,421,166
5771,2003/12/28,9:18:09, 19-47.807N,119-34.834E,226.2,24.229,34.0121,427,166
5772,2003/12/28,9:19:09, 19-47.677N,119-34.670E,231.2,24.219,34.009,405,166
5773,2003/12/28,9:20:09, 19-47.545N,119-34.501E,231.1,24.212,34.0058,384,166
5774,2003/12/28,9:21:09, 19-47.409N,119-34.333E,233.9,24.21,34.0055,432,166
5775,2003/12/28,9:22:09, 19-47.275N,119-34.164E,241.2,24.207,34.0106,424,166
5776,2003/12/28,9:23:09, 19-47.140N,119-34.000E,229.5,24.206,34.012,447,166
5777,2003/12/28,9:24:09, 19-47.008N,119-33.830E,243.5,24.202,34.0165,408,166
5778,2003/12/28,9:25:09, 19-46.874N,119-33.662E,225.1,24.201,34.0212,540,166
5779,2003/12/28,9:26:09, 19-46.739N,119-33.491E,232.3,24.194,34.0277,299,166
5780,2003/12/28,9:27:09, 19-46.602N,119-33.320E,228.1,24.189,34.0332,300,166
5781,2003/12/28,9:28:09, 19-46.470N,119-33.149E,219.6,24.182,34.0397,410,166
5782,2003/12/28,9:29:09, 19-46.327N,119-32.980E,229,24.178,34.0432,425,166
5783,2003/12/28,9:30:09, 19-46.195N,119-32.807E,229.3,24.178,34.0445,395,166
5784,2003/12/28,9:31:09, 19-46.057N,119-32.639E,226.4,24.177,34.0466,378,166
5785,2003/12/28,9:32:09, 19-45.926N,119-32.464E,227.7,24.178,34.0502,369,166
5786,2003/12/28,9:33:09, 19-45.789N,119-32.292E,233.5,24.182,34.054,424,166
5787,2003/12/28,9:34:09, 19-45.648N,119-32.123E,222.3,24.177,34.0606,381,166
5788,2003/12/28,9:35:09, 19-45.510N,119-31.949E,226.9,24.175,34.0665,405,166
5811,2003/12/28,9:58:09, 19-42.386N,119-27.928E,231,24.03,34.0489,467,166
5812,2003/12/28,9:59:09, 19-42.255N,119-27.750E,237.7,24.02,34.0433,483,166
5813,2003/12/28,10:00:09, 19-42.126N,119-27.576E,228.6,24.017,34.0337,484,166
5814,2003/12/28,10:01:09, 19-41.996N,119-27.409E,239.3,24.015,34.0237,470,166
5815,2003/12/28,10:02:09, 19-41.868N,119-27.237E,227.5,24.011,34.0194,492,166
5816,2003/12/28,10:03:09, 19-41.739N,119-27.064E,238.4,24.005,34.0261,480,166
5817,2003/12/28,10:04:09, 19-41.609N,119-26.892E,231.3,23.993,34.0201,512,166
5818,2003/12/28,10:05:09, 19-41.479N,119-26.716E,235.3,23.983,34.0188,519,166
5819,2003/12/28,10:06:09, 19-41.347N,119-26.538E,236.7,23.978,34.0173,484,166
5820,2003/12/28,10:07:09, 19-41.215N,119-26.361E,228.5,23.972,34.0195,518,166
5821,2003/12/28,10:08:09, 19-41.079N,119-26.185E,231.3,23.965,34.019,505,166
5822,2003/12/28,10:09:09, 19-40.945N,119-26.010E,225.4,23.955,34.0186,456,166
5823,2003/12/28,10:10:09, 19-40.816N,119-25.831E,234,23.946,34.0181,464,166
5824,2003/12/28,10:11:09, 19-40.683N,119-25.655E,230.3,23.949,34.0194,543,166
5825,2003/12/28,10:12:09, 19-40.552N,119-25.478E,234.3,23.947,34.0174,584,166
5826,2003/12/28,10:13:09, 19-40.417N,119-25.301E,232.4,23.942,34.0158,498,166
5827,2003/12/28,10:14:09, 19-40.287N,119-25.118E,228.3,23.937,34.0116,509,166
5828,2003/12/28,10:15:09, 19-40.151N,119-24.939E,234.6,23.937,34.0104,524,166
5829,2003/12/28,10:16:09, 19-40.020N,119-24.760E,230.6,23.937,34.0068,510,166
5830,2003/12/28,10:17:09, 19-39.884N,119-24.583E,230.1,23.937,34.0059,529,166
5831,2003/12/28,10:18:09, 19-39.754N,119-24.403E,235,23.936,34.0023,500,166
5832,2003/12/28,10:19:09, 19-39.627N,119-24.228E,232.7,23.936,34.0017,494,166
5833,2003/12/28,10:20:09, 19-39.500N,119-24.057E,226.2,23.937,34.0007,494,166
5834,2003/12/28,10:21:09, 19-39.380N,119-23.890E,228.2,23.933,34.0022,497,166
5835,2003/12/28,10:22:09, 19-39.256N,119-23.728E,237.3,23.927,34.0004,500,166
5836,2003/12/28,10:23:09, 19-39.138N,119-23.558E,230.8,23.922,33.9994,462,166
5837,2003/12/28,10:24:09, 19-39.011N,119-23.394E,230.3,23.922,33.9978,481,166
5838,2003/12/28,10:25:09, 19-38.887N,119-23.223E,228.8,23.915,33.9956,482,166
5839,2003/12/28,10:26:09, 19-38.760N,119-23.052E,235.3,23.906,33.9929,422,166
5840,2003/12/28,10:27:09, 19-38.636N,119-22.882E,232.4,23.896,33.9901,513,166
5841,2003/12/28,10:28:09, 19-38.507N,119-22.715E,231.8,23.884,33.9889,423,166
5842,2003/12/28,10:29:09, 19-38.378N,119-22.544E,239.8,23.871,33.9871,449,166
5843,2003/12/28,10:30:09, 19-38.253N,119-22.370E,223,23.86,33.9849,434,166
5844,2003/12/28,10:31:09, 19-38.124N,119-22.198E,230.7,23.849,33.9826,451,166
5845,2003/12/28,10:32:09, 19-38.002N,119-22.025E,232.1,23.838,33.9815,445,166
5846,2003/12/28,10:33:09, 19-37.872N,119-21.858E,240,23.828,33.9814,438,166
5847,2003/12/28,10:34:09, 19-37.751N,119-21.683E,233.4,23.819,33.9823,411,166
5848,2003/12/28,10:35:09, 19-37.625N,119-21.514E,226.7,23.81,33.9836,397,166
5849,2003/12/28,10:36:09, 19-37.499N,119-21.339E,233.7,23.796,33.9841,367,166
5850,2003/12/28,10:37:09, 19-37.371N,119-21.169E,226.4,23.783,33.9842,353,166
5851,2003/12/28,10:38:09, 19-37.241N,119-21.004E,233.8,23.769,33.9841,343,166
5852,2003/12/28,10:39:09, 19-37.120N,119-20.832E,235.2,23.762,33.9846,339,166
5853,2003/12/28,10:40:09, 19-36.997N,119-20.663E,233.5,23.759,33.9866,333,166
5854,2003/12/28,10:41:09, 19-36.875N,119-20.497E,232.1,23.764,33.9877,326,166
5855,2003/12/28,10:42:09, 19-36.752N,119-20.330E,236.3,23.768,33.9861,317,166
5856,2003/12/28,10:43:09, 19-36.629N,119-20.159E,227.9,23.765,33.986,316,166
5857,2003/12/28,10:44:09, 19-36.506N,119-19.994E,230.9,23.758,33.9898,318,166
5858,2003/12/28,10:45:09, 19-36.387N,119-19.829E,230.1,23.743,33.9916,313,166
5859,2003/12/28,10:46:09, 19-36.263N,119-19.667E,230.7,23.726,33.9921,322,166
5860,2003/12/28,10:47:09, 19-36.141N,119-19.500E,237.1,23.712,33.9916,333,166
5861,2003/12/28,10:48:09, 19-36.019N,119-19.329E,239.3,23.7,33.9916,350,166
5862,2003/12/28,10:49:09, 19-35.893N,119-19.162E,226.5,23.688,33.9926,353,166
5863,2003/12/28,10:50:09, 19-35.765N,119-18.994E,234.6,23.67,33.9941,369,166
5864,2003/12/28,10:51:09, 19-35.637N,119-18.825E,225.4,23.658,33.9985,345,166
5865,2003/12/28,10:52:09, 19-35.513N,119-18.650E,225.2,23.646,34.0045,356,166
5866,2003/12/28,10:53:09, 19-35.385N,119-18.479E,231.6,23.638,34.0103,364,166
5867,2003/12/28,10:54:09, 19-35.255N,119-18.312E,229.7,23.634,34.0158,356,166
5868,2003/12/28,10:55:09, 19-35.131N,119-18.142E,234.5,23.63,34.0209,336,166
5869,2003/12/28,10:56:09, 19-35.006N,119-17.970E,229.7,23.621,34.0252,332,166
5870,2003/12/28,10:57:09, 19-34.875N,119-17.800E,230.2,23.612,34.0278,348,166
5871,2003/12/28,10:58:09, 19-34.748N,119-17.627E,235.8,23.604,34.0309,351,166
5872,2003/12/28,10:59:09, 19-34.619N,119-17.453E,232.8,23.595,34.0323,338,166
5873,2003/12/28,11:00:09, 19-34.489N,119-17.276E,233.9,23.582,34.0347,341,166
5874,2003/12/28,11:01:09, 19-34.357N,119-17.101E,231.7,23.573,34.0381,343,166
5875,2003/12/28,11:02:09, 19-34.230N,119-16.922E,224.4,23.563,34.0407,339,166
5876,2003/12/28,11:03:09, 19-34.099N,119-16.749E,232.6,23.553,34.0433,302,166
5877,2003/12/28,11:04:09, 19-33.967N,119-16.581E,224.4,23.539,34.0473,392,166
5878,2003/12/28,11:05:09, 19-33.837N,119-16.406E,241.1,23.526,34.0512,289,166
5879,2003/12/28,11:06:09, 19-33.710N,119-16.231E,233.6,23.514,34.0555,312,166
5880,2003/12/28,11:07:09, 19-33.580N,119-16.054E,241.6,23.508,34.0607,320,166
5881,2003/12/28,11:08:09, 19-33.447N,119-15.882E,235.5,23.496,34.0635,258,166
5882,2003/12/28,11:09:09, 19-33.317N,119-15.712E,223.9,23.475,34.0683,386,166
5883,2003/12/28,11:10:09, 19-33.186N,119-15.543E,229.4,23.442,34.0746,321,166
5884,2003/12/28,11:11:09, 19-33.059N,119-15.370E,230.3,23.414,34.0806,362,166
5885,2003/12/28,11:12:09, 19-32.930N,119-15.200E,222.5,23.403,34.0859,438,166
5886,2003/12/28,11:13:09, 19-32.802N,119-15.029E,226.5,23.397,34.0894,391,166
5887,2003/12/28,11:14:09, 19-32.669N,119-14.861E,231.5,23.385,34.0936,210,166
5888,2003/12/28,11:15:09, 19-32.540N,119-14.684E,232.7,23.371,34.0974,352,166
5889,2003/12/28,11:16:09, 19-32.410N,119-14.509E,229.1,23.352,34.1015,285,166
5890,2003/12/28,11:17:09, 19-32.278N,119-14.338E,223.2,23.342,34.107,317,166
5891,2003/12/28,11:18:09, 19-32.147N,119-14.167E,235.4,23.344,34.1121,305,166
5892,2003/12/28,11:19:09, 19-32.016N,119-13.995E,228.4,23.349,34.1177,364,166
5893,2003/12/28,11:20:09, 19-31.885N,119-13.824E,228.7,23.352,34.1226,343,166
5894,2003/12/28,11:21:09, 19-31.759N,119-13.656E,232.2,23.355,34.1213,320,166
5895,2003/12/28,11:22:09, 19-31.634N,119-13.486E,231.5,23.365,34.121,337,166
5896,2003/12/28,11:23:09, 19-31.503N,119-13.323E,223,23.377,34.1196,334,166
5897,2003/12/28,11:24:09, 19-31.374N,119-13.152E,232.8,23.399,34.1158,342,166
5898,2003/12/28,11:25:09, 19-31.248N,119-12.979E,234.6,23.411,34.1075,323,166
5899,2003/12/28,11:26:09, 19-31.118N,119-12.810E,219,23.421,34.0979,350,166
5900,2003/12/28,11:27:09, 19-30.989N,119-12.640E,232.4,23.436,34.0928,356,166
5901,2003/12/28,11:28:09, 19-30.856N,119-12.472E,232.8,23.455,34.0889,345,166
5902,2003/12/28,11:29:09, 19-30.724N,119-12.299E,230.4,23.462,34.0856,365,166
5903,2003/12/28,11:30:09, 19-30.595N,119-12.127E,224.4,23.465,34.0831,360,166
5904,2003/12/28,11:31:09, 19-30.463N,119-11.959E,220.7,23.47,34.083,333,166
5905,2003/12/28,11:32:09, 19-30.335N,119-11.790E,231.1,23.476,34.0835,308,166
5906,2003/12/28,11:33:09, 19-30.203N,119-11.623E,225.9,23.488,34.0844,345,166
5907,2003/12/28,11:34:09, 19-30.077N,119-11.453E,232.3,23.494,34.0832,336,166
5908,2003/12/28,11:35:09, 19-29.948N,119-11.281E,235.7,23.497,34.0795,362,166
5909,2003/12/28,11:36:09, 19-29.813N,119-11.114E,229.9,23.5,34.0778,365,166
5910,2003/12/28,11:37:09, 19-29.685N,119-10.944E,233.9,23.501,34.0776,382,166
5911,2003/12/28,11:38:09, 19-29.555N,119-10.776E,229.8,23.497,34.0773,375,166
5912,2003/12/28,11:39:09, 19-29.424N,119-10.609E,240.8,23.499,34.0796,369,166
5913,2003/12/28,11:40:09, 19-29.300N,119-10.438E,239.1,23.505,34.0809,376,166
5914,2003/12/28,11:41:09, 19-29.172N,119-10.276E,233.1,23.504,34.0818,369,166
5915,2003/12/28,11:42:09, 19-29.043N,119-10.114E,230.4,23.5,34.0823,388,166
5916,2003/12/28,11:43:09, 19-28.914N,119-09.948E,228.1,23.494,34.0832,384,166
5917,2003/12/28,11:44:09, 19-28.783N,119-09.783E,225.5,23.497,34.0838,384,166
5918,2003/12/28,11:45:09, 19-28.654N,119-09.616E,234.8,23.493,34.0861,385,166
5919,2003/12/28,11:46:09, 19-28.523N,119-09.456E,225.6,23.492,34.0887,390,166
5920,2003/12/28,11:47:09, 19-28.392N,119-09.295E,237,23.493,34.0907,381,166
5921,2003/12/28,11:48:09, 19-28.261N,119-09.132E,236,23.493,34.0935,391,166
5922,2003/12/28,11:49:09, 19-28.129N,119-08.972E,233.2,23.495,34.0958,400,166
5923,2003/12/28,11:50:09, 19-28.000N,119-08.809E,234.1,23.495,34.0993,372,166
5924,2003/12/28,11:51:09, 19-27.873N,119-08.649E,225.3,23.499,34.1017,364,166
5925,2003/12/28,11:52:09, 19-27.740N,119-08.493E,224,23.502,34.1063,373,166
5926,2003/12/28,11:53:09, 19-27.608N,119-08.327E,234.1,23.501,34.1114,373,166
5927,2003/12/28,11:54:09, 19-27.474N,119-08.164E,231.6,23.501,34.1168,376,166
5929,2003/12/28,11:56:09, 19-27.200N,119-07.832E,225.2,23.502,34.1244,364,166
5930,2003/12/28,11:57:09, 19-27.064N,119-07.672E,226.6,23.507,34.1259,355,166
5932,2003/12/28,11:59:09, 19-26.783N,119-07.349E,235.4,23.515,34.1217,354,166
5933,2003/12/28,12:00:09, 19-26.647N,119-07.183E,228,23.524,34.1154,355,166
5935,2003/12/28,12:02:09, 19-26.369N,119-06.855E,230.6,23.53,34.1054,374,166
5936,2003/12/28,12:03:09, 19-26.229N,119-06.698E,229.3,23.539,34.0985,350,166
5937,2003/12/28,12:04:09, 19-26.093N,119-06.537E,217.1,23.549,34.0942,270,166
5938,2003/12/28,12:05:09, 19-25.954N,119-06.375E,218.9,23.552,34.0926,349,166
5939,2003/12/28,12:06:09, 19-25.823N,119-06.216E,231.5,23.553,34.0916,353,166
5940,2003/12/28,12:07:09, 19-25.692N,119-06.064E,224.3,23.549,34.0917,345,166
5941,2003/12/28,12:08:09, 19-25.559N,119-05.911E,232.2,23.546,34.0924,369,166
5942,2003/12/28,12:09:09, 19-25.432N,119-05.756E,221.9,23.545,34.0912,256,166
5943,2003/12/28,12:10:09, 19-25.303N,119-05.606E,227.8,23.542,34.0933,416,166
5944,2003/12/28,12:11:09, 19-25.177N,119-05.449E,231.1,23.538,34.0928,346,166
5945,2003/12/28,12:12:09, 19-25.045N,119-05.294E,229,23.534,34.0929,315,166
5946,2003/12/28,12:13:09, 19-24.919N,119-05.134E,226.6,23.532,34.0933,352,166
5947,2003/12/28,12:14:09, 19-24.782N,119-04.983E,224.9,23.522,34.0933,280,166
5948,2003/12/28,12:15:09, 19-24.652N,119-04.824E,230.9,23.519,34.0933,335,166
5949,2003/12/28,12:16:09, 19-24.514N,119-04.672E,233.3,23.511,34.0941,325,166
5950,2003/12/28,12:17:09, 19-24.383N,119-04.510E,224.4,23.493,34.0945,330,166
5951,2003/12/28,12:18:09, 19-24.251N,119-04.361E,223.2,23.487,34.0884,324,166
5952,2003/12/28,12:19:09, 19-24.127N,119-04.206E,221.7,23.485,34.0812,340,166
5953,2003/12/28,12:20:09, 19-23.994N,119-04.057E,232.9,23.482,34.0795,331,166